Del Bajio, Mexico

11:14 AM CDT on September 24, 2017 (GMT -0500)
De Guanajuato International

Weather History for MMLO - October, 2012

Change the Weather History Date:

Friday, October 26, 2012

  Actual Average Record
Temperature  
Mean Temperature 70 °F -  
Max Temperature 89 °F 78 °F 89 °F (2012)
Min Temperature 51 °F 50 °F 35 °F (1999)
Cooling Degree Days 5    
Growing Degree Days 20 (Base 50)    
Moisture  
Dew Point 40 °F    
Average Humidity 35    
Maximum Humidity 62    
Minimum Humidity 16    
Precipitation  
Precipitation 0.00 in - - ()
Sea Level Pressure  
Sea Level Pressure 29.98 in    
Wind  
Wind Speed 3 mph ()    
Max Wind Speed 20 mph    
Max Gust Speed -    
Visibility 9.0 miles    
Events      
Averages and records for this station are not official NWS values.
T = Trace of Precipitation, MM = Missing Value Source: Averaged Metar Reports

Daily Weather History Graph

Daily Weather History Graph

Search for Another Location

Airport or City:

Trip Planner

Search our weather history database for the weather conditions in past years. The results will help you decide how hot, cold, wet, or windy it might be!

Date:

Astronomy

Oct. 26, 2012 Rise Set
Actual Time 7:45 AM CDT 7:13 PM CDT
Civil Twilight 7:23 AM CDT 7:36 PM CDT
Nautical Twilight 6:57 AM CDT 8:02 PM CDT
Astronomical Twilight 6:31 AM CDT 8:28 PM CDT
Moon 5:15 PM CDT (10/26) 5:02 AM CDT (10/26)
Length of Visible Light 12h 12m
Length of Day
11h 27m
Waxing Gibbous, 91% of the Moon is Illuminated
Oct 26
Waxing Gibbous
Oct 29
Full
Nov 6
Last Quarter
Nov 13
New
Nov 20
First Quarter

Hourly Weather History & Observations

Time (CDT) Temp. Dew Point Humidity Pressure Visibility Wind Dir Wind Speed Gust Speed Precip Events Conditions
12:49 AM 66.2 °F 39.2 °F 37% 29.67 in 8.0 mi Calm Calm - N/A   Clear
2:49 AM 60.8 °F 39.2 °F 45% 30.11 in 8.0 mi Calm Calm - N/A   Clear
3:50 AM 57.2 °F 41.0 °F 55% 29.68 in 8.0 mi Calm Calm - N/A   Clear
4:46 AM 55.4 °F 41.0 °F 58% 30.11 in 8.0 mi NNE 6.9 mph - N/A   Clear
5:45 AM 55.4 °F 41.0 °F 58% 30.12 in 8.0 mi NE 8.1 mph - N/A   Clear
6:40 AM 55.4 °F 39.2 °F 54% 29.75 in 8.0 mi NE 6.9 mph - N/A   Clear
7:47 AM 51.8 °F 39.2 °F 62% 30.15 in 10.0 mi Calm Calm - N/A   Clear
8:44 AM 60.8 °F 39.2 °F 45% 30.18 in 9.0 mi Calm Calm - N/A   Clear
9:47 AM 73.4 °F 39.2 °F 29% 29.81 in 9.0 mi Calm Calm - N/A   Clear
10:40 AM 77.0 °F 39.2 °F 26% 30.21 in 10.0 mi Calm Calm - N/A   Clear
11:47 AM 80.6 °F 35.6 °F 20% 30.21 in 10.0 mi Calm Calm - N/A   Clear
12:40 PM 82.4 °F 37.4 °F 20% 29.73 in 10.0 mi Calm Calm - N/A   Clear
1:43 PM 86.0 °F 37.4 °F 18% 30.12 in 10.0 mi Calm Calm - N/A   Clear
2:42 PM 87.8 °F 39.2 °F 18% 30.09 in 10.0 mi South 9.2 mph - N/A   Clear
3:43 PM 89.6 °F 37.4 °F 16% 29.65 in 10.0 mi SSE 8.1 mph - N/A   Partly Cloudy
4:45 PM 89.6 °F 39.2 °F 17% 30.06 in 10.0 mi SSW 4.6 mph - N/A   Partly Cloudy
5:42 PM 87.8 °F 39.2 °F 18% 30.03 in 10.0 mi Calm Calm - N/A   Partly Cloudy
6:42 PM 84.2 °F 37.4 °F 19% 29.68 in 10.0 mi South 6.9 mph - N/A   Scattered Clouds
7:42 PM 75.2 °F 41.0 °F 29% 30.09 in 8.0 mi NE 9.2 mph - N/A   Scattered Clouds
8:59 PM 71.6 °F 44.6 °F 38% 30.12 in 8.0 mi SE 18.4 mph - N/A   Scattered Clouds
9:43 PM 69.8 °F 44.6 °F 40% 29.73 in 8.0 mi SE 18.4 mph - N/A   Clear
10:48 PM 69.8 °F 41.0 °F 35% 30.15 in 8.0 mi NE 19.6 mph - N/A   Clear
11:41 PM 64.4 °F 44.6 °F 49% 30.18 in 8.0 mi ESE 8.1 mph - N/A   Clear